Terminal Aerodrome Forecast
Issued by NWS Billings, MT

Home | Current Version | Previous Version | Text Only | Print | Product List | Glossary Off
Versions: 1 2 3 4 5 6 7 8 9 10 11 12 13 14 15 16 17 18 19 20 21 22 23 24 25 26 27 28 29 30 31 32 33 34 35 36 37 38 39 40 41 42 43 44 45

000
FTUS45 KBYZ 282110 AAA
TAFMLS
TAF AMD
KMLS 282110Z 2821/2918 07011KT P6SM FEW023 OVC060
     FM290230 07007KT P6SM VCSH BKN015 OVC030
     FM291100 08013KT 4SM -RA BR OVC004=

USA.gov is the U.S. government's official web portal to all federal, state and local government web resources and services.